Theta_e
308 308 308 308 308 308 309 310 310 310 310 311 312 313 314 316 314 297 293 303 309 321 321 303 297 295 295 292 291 296 287 285 288 290 294 299 296 300 304 304 300 304 305 308 303
307 306 307 307 307 307 308 309 309 309 309 310 310 312 313 314 304 292 302 310 313 321 299 295 294 293 289 290 290 288 284 286 290 289 290 293 291 295 294 293 296 297 299 302 302
305 305 305 306 306 307 307 308 308 308 308 308 309 310 312 311 292 291 304 307 311 313 300 295 293 291 289 289 288 286 283 287 288 289 289 291 291 291 290 290 292 294 296 296 296
304 304 305 305 306 306 306 307 307 307 307 307 308 309 312 300 284 293 302 303 307 302 300 295 291 287 285 285 288 283 287 288 289 290 288 287 289 289 290 291 294 293 295 292 295
303 303 304 305 305 305 307 310 311 308 305 306 308 309 295 283 283 290 298 296 294 295 294 293 288 286 283 285 286 284 285 287 288 288 287 288 287 287 288 291 293 293 294 293 293
303 303 303 304 304 307 310 314 313 309 307 308 308 302 286 277 290 289 288 289 289 291 290 292 290 290 286 284 283 284 285 286 286 286 287 286 287 288 291 293 291 291 291 292 293
302 302 302 303 303 307 313 313 312 312 311 310 308 291 284 281 289 288 289 287 287 288 288 291 291 287 286 284 286 286 282 284 285 285 284 285 284 283 289 290 288 289 290 292 293
302 301 302 301 304 307 309 310 312 311 313 308 302 288 281 290 289 288 287 287 289 290 290 291 291 287 282 284 283 280 279 275 281 284 285 283 279 286 289 287 287 289 289 290 290
301 300 301 301 303 308 304 303 303 302 300 296 286 282 276 290 284 286 286 284 287 288 291 292 288 281 279 275 274 275 271 273 277 283 280 280 276 283 288 288 286 287 288 289 291
301 300 300 300 301 303 304 302 299 294 290 289 286 280 281 279 283 285 286 286 284 284 285 280 276 272 272 272 266 268 268 271 270 276 277 276 275 281 284 284 285 287 287 288 289
301 300 300 299 300 300 294 288 283 281 282 278 278 277 280 283 284 283 285 284 281 279 276 276 271 267 268 272 270 270 269 267 272 277 274 274 274 276 280 281 282 284 287 289 290
301 300 299 297 299 298 289 283 283 282 276 282 281 281 282 282 277 280 285 277 276 272 275 271 267 271 274 276 271 270 267 267 272 275 273 272 272 277 279 280 282 281 284 283 280
300 300 298 297 295 289 284 284 289 286 276 277 280 278 280 281 276 277 281 278 273 271 271 268 269 275 274 271 270 269 267 268 268 271 273 272 271 276 280 278 280 280 279 278 278
300 298 297 294 287 283 282 286 288 285 268 273 276 278 280 279 275 280 281 277 274 270 270 269 273 273 271 270 271 267 272 271 270 268 264 271 262 273 276 276 277 278 277 276 276
300 297 296 293 282 281 284 287 288 284 262 275 275 283 280 275 275 276 281 279 272 271 271 269 269 270 269 270 272 269 272 271 271 268 267 268 266 272 275 273 275 277 278 277 276
299 296 293 286 283 283 286 286 284 270 261 267 274 275 274 276 275 277 276 278 276 273 272 271 273 272 271 273 273 274 271 271 270 268 261 267 267 270 271 273 275 277 277 277 276
299 294 289 287 280 285 286 282 270 265 269 264 268 274 273 271 272 273 272 269 265 261 264 269 270 271 274 269 272 272 266 259 256 257 260 269 266 270 275 276 276 276 276 277 277
297 293 288 286 284 284 281 274 264 259 259 273 273 273 269 271 270 271 270 266 269 267 262 261 262 269 273 270 266 269 264 258 252 259 261 268 267 270 277 278 279 278 278 277 276
293 282 280 283 284 280 276 264 263 264 270 271 271 265 261 269 268 268 266 263 265 266 258 257 263 270 273 272 270 265 261 267 259 263 261 265 266 275 276 275 276 276 276 276 276
281 277 278 283 281 278 269 264 263 274 274 273 264 267 256 258 263 264 265 265 269 272 268 266 257 270 272 271 271 267 270 260 260 248 250 263 262 265 270 271 273 274 274 275 276
277 275 279 281 279 272 264 257 267 276 275 272 269 262 266 262 263 259 263 269 268 271 272 261 262 265 269 264 265 265 263 264 264 261 256 257 258 267 269 272 271 273 274 275 275
276 271 280 279 271 254 258 265 276 274 275 274 272 271 266 267 262 261 261 266 271 270 268 268 261 259 263 267 269 266 262 263 255 256 260 260 259 271 273 274 273 273 274 275 276
269 271 279 278 265 256 262 270 274 273 273 272 272 273 271 269 260 267 269 273 273 270 264 264 258 253 261 262 265 261 267 269 265 265 259 254 259 272 273 272 273 272 273 274 276
269 269 272 271 269 266 261 266 267 276 273 273 270 272 270 267 270 260 268 273 275 274 277 275 260 258 258 261 259 256 260 267 261 254 260 262 264 268 270 270 272 273 272 273 273
269 264 263 261 264 260 265 269 269 269 270 274 270 267 263 257 263 264 269 270 273 275 274 268 256 256 263 265 265 264 263 264 262 263 258 264 264 267 270 268 271 273 273 274 274
268 266 262 259 265 262 265 267 269 271 268 266 264 270 268 262 265 263 265 267 267 267 265 263 256 255 258 266 266 263 265 264 265 265 265 265 265 271 272 270 270 273 274 274 274
275 272 269 267 260 261 263 270 271 272 272 272 270 269 269 270 271 270 272 273 271 265 266 262 260 254 253 262 262 257 260 264 264 261 263 261 267 268 268 272 272 272 273 273 274
Wind_Speed
17 17 16 16 16 15 14 14 13 12 12 11 9 8 8 8 7 15 18 17 17 21 9 6 5 7 3 3 1 3 1 4 6 6 9 8 3 6 2 6 3 4 6 9 4
17 17 17 17 16 15 13 13 13 12 10 10 8 6 6 4 3 20 22 29 26 19 7 8 7 7 3 1 1 4 4 10 6 3 7 11 5 8 4 4 16 15 8 11 9
19 18 18 18 17 16 15 15 14 11 8 8 7 5 5 2 6 7 30 30 24 14 5 2 4 2 2 1 2 2 6 5 5 7 4 7 21 6 7 16 13 18 19 6 9
19 19 19 18 18 17 17 16 14 12 10 8 5 4 6 1 2 7 31 29 20 11 5 4 4 2 1 3 4 5 6 5 6 7 8 7 11 17 13 18 13 12 14 6 11
21 21 21 20 20 20 17 13 9 4 4 5 2 2 5 10 4 14 26 23 9 9 5 4 5 4 2 3 8 5 4 6 8 11 11 12 15 23 25 16 17 18 18 18 15
21 21 22 21 21 21 15 13 8 8 8 5 1 7 8 11 8 12 13 13 7 6 6 4 2 2 2 2 1 5 5 11 7 10 13 19 24 14 25 17 15 13 14 15 17
20 21 21 19 19 19 14 17 16 13 12 14 13 7 21 6 9 14 12 6 4 4 4 3 2 3 5 6 5 6 10 7 7 9 5 14 16 10 13 11 8 11 13 14 15
21 22 21 22 21 15 14 17 18 15 10 11 13 7 9 2 12 22 15 9 10 4 2 6 1 8 8 9 9 8 4 7 9 20 10 14 23 12 14 19 30 22 14 12 11
21 21 20 21 21 12 17 18 13 15 21 9 12 9 3 10 19 17 9 10 8 7 14 11 9 7 9 6 5 10 7 13 12 20 17 9 30 4 29 30 25 29 24 20 21
20 22 20 16 18 9 7 9 24 14 9 4 7 7 8 7 6 11 12 8 5 6 9 14 9 6 9 12 5 11 8 8 16 9 13 17 36 25 19 26 28 24 28 25 17
19 21 19 11 17 10 6 5 7 12 17 10 2 5 3 10 1 20 10 10 10 12 6 8 14 10 7 5 2 5 11 19 17 11 20 8 29 31 23 20 24 26 24 26 28
19 19 17 7 16 8 6 6 1 6 10 7 5 5 2 3 4 23 14 9 10 14 3 7 14 6 6 3 9 9 16 13 15 15 21 18 32 28 19 11 18 24 24 23 25
18 18 16 5 7 10 6 3 5 1 7 4 3 4 4 5 6 16 10 3 7 10 13 12 1 5 6 5 15 12 6 14 20 21 14 13 6 22 22 19 23 25 20 22 22
17 18 15 2 7 1 3 6 4 3 8 13 8 7 8 2 6 6 8 2 6 4 3 9 3 7 7 11 14 8 10 19 21 15 6 7 10 10 20 23 24 22 23 22 23
16 15 12 14 5 4 4 5 3 3 6 7 7 5 8 9 4 17 6 6 7 6 3 2 4 4 8 12 13 9 23 20 18 13 10 5 1 6 14 19 23 20 19 19 20
14 10 11 6 4 2 5 2 3 10 4 4 4 6 4 6 5 8 9 7 1 4 6 2 2 1 2 12 6 17 14 10 1 3 2 5 10 2 9 11 17 16 16 17 19
12 4 5 2 2 5 3 4 8 9 5 6 3 4 5 7 6 7 4 12 6 7 8 6 3 2 1 5 4 14 8 5 9 7 5 8 10 3 7 8 11 15 16 16 16
11 3 4 4 4 1 3 7 9 3 5 2 2 3 5 8 4 7 3 5 6 4 3 4 6 3 6 2 3 7 4 5 2 6 10 17 4 2 5 5 8 10 12 14 16
4 3 3 5 4 2 6 9 8 6 5 4 2 6 6 3 2 5 5 3 3 1 5 4 5 2 2 1 3 5 5 5 2 6 5 6 6 11 12 16 15 14 15 16 16
3 2 2 8 2 5 9 5 3 2 4 3 4 1 2 4 4 5 3 3 3 5 3 2 5 3 3 2 2 6 4 4 4 5 7 8 7 6 15 19 17 16 16 16 15
4 4 2 5 4 9 6 5 3 1 2 2 4 3 3 1 3 1 3 3 3 4 4 4 5 3 3 3 4 2 2 3 2 3 3 8 8 6 7 10 13 14 13 14 14
3 4 3 2 8 2 3 5 3 3 4 3 4 3 4 4 2 2 5 6 6 4 3 4 4 6 9 2 2 5 6 5 6 7 4 3 13 9 8 8 7 13 10 12 12
3 2 3 2 5 2 4 2 2 2 2 2 2 3 2 4 1 5 4 4 8 5 6 3 2 5 6 7 6 3 6 5 3 3 10 4 11 5 7 8 8 7 10 10 11
4 4 7 8 2 7 5 0 2 1 2 3 3 4 3 1 4 4 3 3 9 6 6 7 4 9 8 7 5 3 5 7 7 4 5 19 25 22 13 6 9 13 6 7 8
5 1 4 3 5 4 3 3 4 4 1 4 1 5 7 2 2 5 4 3 5 7 3 6 6 5 12 17 16 21 21 16 18 18 11 20 17 20 11 7 7 7 9 8 7
5 4 4 2 2 4 5 4 6 2 7 4 5 3 7 7 10 8 5 3 7 2 4 2 5 3 10 13 14 19 20 19 20 22 24 26 31 23 18 5 6 8 9 11 7
1 2 5 3 2 4 4 5 6 6 3 5 7 3 8 16 10 10 8 8 7 8 6 5 3 4 8 8 9 13 12 16 7 7 9 14 21 3 4 6 7 8 9 11 10
Wind_Direction
12 7 2 356 350 344 343 340 333 328 326 329 338 342 355 339 343 40 39 334 331 331 343 312 11 357 36 22 19 108 75 232 245 197 267 306 327 316 261 288 310 244 267 272 335
10 4 0 353 346 343 337 332 327 322 322 322 333 336 336 358 45 44 348 342 339 341 358 9 353 355 14 324 296 148 167 216 217 232 277 295 310 283 313 306 283 285 262 282 304
7 3 359 352 344 339 334 325 315 313 301 304 307 315 320 342 82 337 344 340 338 347 327 291 309 318 7 346 249 208 220 225 266 274 270 284 295 250 257 270 248 275 279 273 291
4 1 356 350 344 339 333 322 302 289 281 288 297 307 331 44 83 328 336 336 338 344 28 6 4 71 351 246 340 300 254 273 308 341 331 297 299 287 245 267 274 265 274 294 287
3 360 354 350 347 343 334 331 330 330 229 243 271 323 63 52 56 329 330 328 334 351 26 11 46 28 359 331 324 211 306 326 312 300 288 281 270 271 277 280 266 267 279 278 271
3 0 355 351 351 346 352 359 22 78 110 124 96 91 70 68 287 331 321 321 2 1 346 15 64 232 210 289 238 326 288 305 305 295 278 279 281 278 282 279 275 272 272 271 270
5 357 357 359 356 356 19 42 59 89 104 97 88 95 68 86 338 332 337 297 307 315 335 11 22 49 355 322 343 275 304 307 309 353 286 323 281 246 276 309 313 305 287 277 280
3 1 1 4 359 359 53 60 65 69 87 62 52 72 89 321 358 2 347 333 350 348 297 301 56 80 42 301 344 345 15 359 13 9 353 356 277 329 328 358 325 321 320 310 298
3 359 2 8 1 62 63 56 41 43 53 34 40 81 25 329 3 345 356 340 322 345 26 48 57 60 10 356 11 21 333 322 322 355 344 23 291 288 322 318 312 312 309 305 308
2 1 356 359 0 341 20 4 54 31 355 49 58 57 9 321 331 338 336 335 20 349 27 30 45 60 22 25 12 323 317 292 298 311 306 298 280 300 326 312 307 308 307 306 303
0 360 352 350 4 8 16 9 18 11 32 82 338 95 2 310 360 358 351 342 17 47 81 38 62 38 332 48 50 296 305 300 305 303 335 329 286 299 304 302 288 288 287 291 295
358 359 2 7 32 31 60 70 63 166 87 20 26 40 358 337 343 3 2 55 29 55 60 67 55 327 338 6 352 337 313 309 299 341 322 296 296 302 302 290 340 352 324 7 4
356 0 3 337 36 42 82 62 311 204 84 40 43 44 337 351 36 353 15 35 59 52 49 87 236 322 23 357 353 326 309 316 295 318 279 326 317 34 15 17 9 6 1 8 0
360 4 7 350 54 288 60 323 324 183 83 341 351 15 343 314 53 348 7 60 53 78 80 81 331 13 0 2 355 320 331 307 295 321 312 42 291 35 4 15 14 4 1 354 353
0 8 17 43 141 59 309 324 305 54 69 335 336 290 342 72 279 352 359 28 56 21 75 258 334 346 356 346 340 274 309 296 286 275 311 356 208 343 14 11 3 356 356 353 348
356 13 15 22 41 110 318 307 49 44 263 340 326 359 31 23 30 332 12 25 87 37 43 89 280 107 253 313 311 315 307 311 57 158 355 258 15 29 14 353 343 348 350 350 351
350 66 50 59 296 332 338 53 40 103 347 305 334 359 74 8 13 11 34 32 44 35 19 333 324 298 334 313 320 348 357 8 7 9 261 344 335 84 12 353 345 336 342 350 352
354 96 30 87 308 182 65 55 73 242 225 262 17 63 67 10 17 352 43 31 24 45 66 38 335 11 356 80 240 341 59 97 303 314 299 298 246 113 6 359 357 346 340 349 350
60 1 39 335 343 73 77 53 189 191 171 147 63 62 339 358 23 19 32 148 230 30 122 34 270 326 263 52 100 319 29 185 206 288 274 265 298 209 12 6 360 356 354 355 350
77 58 348 334 28 68 73 155 147 240 128 117 119 108 183 283 42 46 7 220 189 210 136 200 318 211 294 136 80 121 232 44 27 12 304 279 299 270 355 348 349 352 353 347 345
60 57 264 345 57 48 102 200 198 169 102 110 147 129 195 208 156 235 233 260 216 189 124 125 113 295 7 204 180 350 30 56 138 169 237 310 261 209 10 344 337 339 345 339 340
72 47 326 69 51 31 84 175 192 129 57 89 96 122 156 155 191 237 225 217 180 154 164 200 161 270 238 248 210 163 188 145 122 274 242 268 271 275 356 349 337 322 336 334 339
79 253 344 54 103 2 308 47 98 110 136 114 143 136 168 182 7 209 222 214 163 154 171 211 278 329 343 2 4 171 196 186 152 186 223 172 256 225 17 318 316 311 324 325 333
69 29 341 45 99 114 123 233 96 101 121 124 144 69 116 238 213 240 237 242 195 196 225 171 192 191 202 214 135 243 217 212 158 190 254 239 273 280 289 293 312 314 305 302 314
27 283 176 329 359 73 67 154 135 169 10 169 164 184 164 171 288 233 221 280 236 224 225 147 229 205 251 270 273 265 259 246 221 227 225 267 276 276 274 250 265 278 291 308 310
98 114 354 115 341 52 351 223 161 189 145 250 175 208 177 186 196 197 170 185 230 333 135 20 277 58 286 267 258 265 254 241 238 242 243 257 269 275 262 242 268 281 280 293 294
32 31 98 317 27 78 226 192 208 148 238 187 194 158 212 235 227 226 224 236 216 169 190 159 170 45 270 343 327 294 246 201 200 202 198 222 245 218 252 263 274 266 286 271 278